Butte, MT

10:37 PM MST on February 10, 2016 (GMT -0700)
Mooney

Weather History for KBTM - October, 2014

Change the Weather History Date:

Saturday, October 25, 2014

  Actual Average Record
Temperature  
Mean Temperature 48 °F 38 °F  
Max Temperature 67 °F 51 °F 71 °F (1999)
Min Temperature 28 °F 24 °F 0 °F (1919)
Degree Days  
Heating Degree Days 17 27  
Month to date heating degree days 443 577  
Since 1 July heating degree days 974 1198  
Cooling Degree Days 0 0  
Month to date cooling degree days 0 0  
Year to date cooling degree days 78 81  
Moisture  
Dew Point 31 °F    
Average Humidity 63    
Maximum Humidity 100    
Minimum Humidity 26    
Precipitation  
Precipitation T in 0.03 in 0.45 in (1910)
Month to date precipitation 0.79 0.66  
Year to date precipitation 13.23 11.54  
Sea Level Pressure  
Sea Level Pressure 29.93 in    
Wind  
Wind Speed 6 mph (SSE)    
Max Wind Speed 22 mph    
Max Gust Speed 33 mph    
Visibility 9 miles    
Events      
T = Trace of Precipitation, MM = Missing Value Source: NWS Daily Summary

Daily Weather History Graph

Daily Weather History Graph

Search for Another Location

Airport or City:

Trip Planner

Search our weather history database for the weather conditions in past years. The results will help you decide how hot, cold, wet, or windy it might be!

Date:

Astronomy

Oct. 25, 2014 Rise Set
Actual Time 8:00 AM MDT 6:26 PM MDT
Civil Twilight 7:29 AM MDT 6:57 PM MDT
Nautical Twilight 6:55 AM MDT 7:32 PM MDT
Astronomical Twilight 6:20 AM MDT 8:06 PM MDT
Moon 9:47 AM MDT (10/25) 7:47 PM MDT (10/25)
Length of Visible Light 11h 27m
Length of Day
10h 26m
Waxing Crescent, 4% of the Moon is Illuminated
Oct 25
Waxing Crescent
Oct 30
First Quarter
Nov 6
Full
Nov 14
Last Quarter
Nov 22
New

Hourly Weather History & Observations

Time (MDT) Temp. Windchill Dew Point Humidity Pressure Visibility Wind Dir Wind Speed Gust Speed Precip Events Conditions
12:53 AM 35.1 °F - 34.0 °F 96% 30.12 in 10.0 mi Calm Calm - N/A   Clear
1:53 AM 34.0 °F 29.8 °F 32.0 °F 92% 30.10 in 10.0 mi South 4.6 mph - N/A   Clear
2:53 AM 32.0 °F 26.4 °F 30.9 °F 96% 30.11 in 10.0 mi ESE 5.8 mph - N/A   Clear
3:53 AM 30.9 °F - 30.9 °F 100% 30.09 in 10.0 mi Calm Calm - N/A   Clear
4:53 AM 30.9 °F - 28.9 °F 92% 30.07 in 10.0 mi Calm Calm - N/A   Clear
5:02 AM 30.0 °F 26.5 °F 28.9 °F 96% 30.05 in 4.0 mi SSE 3.5 mph - N/A   Scattered Clouds
5:05 AM 30.0 °F 25.2 °F 28.9 °F 96% 30.05 in 1.8 mi SE 4.6 mph - N/A   Scattered Clouds
5:10 AM 30.0 °F 23.2 °F 28.9 °F 96% 30.05 in 0.8 mi SE 6.9 mph - N/A   Mist
5:15 AM 28.9 °F 22.8 °F 28.0 °F 96% 30.05 in 1.2 mi SSE 5.8 mph - N/A   Scattered Clouds
5:19 AM 28.9 °F 21.9 °F 28.0 °F 96% 30.05 in 4.0 mi SSE 6.9 mph - N/A   Scattered Clouds
5:53 AM 28.9 °F 23.9 °F 28.0 °F 96% 30.06 in 10.0 mi ESE 4.6 mph - N/A   Clear
6:53 AM 30.0 °F - 28.9 °F 96% 30.05 in 10.0 mi Calm Calm - N/A   Clear
7:53 AM 28.9 °F - 27.0 °F 92% 30.05 in 10.0 mi Calm Calm - N/A   Clear
8:53 AM 28.9 °F - 26.1 °F 89% 30.04 in 10.0 mi Calm Calm - N/A   Clear
9:53 AM 36.0 °F - 33.1 °F 89% 30.01 in 10.0 mi Calm Calm - N/A   Clear
10:53 AM 44.1 °F - 36.0 °F 73% 29.97 in 10.0 mi Calm Calm - N/A   Clear
11:53 AM 52.0 °F - 37.9 °F 59% 29.91 in 10.0 mi Calm Calm - N/A   Clear
12:53 PM 60.1 °F - 37.0 °F 42% 29.85 in 10.0 mi Calm Calm - N/A   Clear
1:53 PM 64.9 °F - 32.0 °F 29% 29.82 in 10.0 mi South 16.1 mph - N/A   Clear
2:53 PM 64.9 °F - 30.9 °F 28% 29.79 in 10.0 mi South 11.5 mph - N/A   Clear
3:53 PM 66.0 °F - 30.9 °F 27% 29.76 in 10.0 mi South 17.3 mph - N/A   Clear
4:53 PM 64.0 °F - 30.9 °F 29% 29.74 in 10.0 mi SSE 17.3 mph 23.0 mph N/A   Clear
5:53 PM 61.0 °F - 32.0 °F 34% 29.75 in 10.0 mi SSE 12.7 mph - N/A   Clear
6:53 PM 55.9 °F - 33.1 °F 42% 29.75 in 10.0 mi SSE 12.7 mph - N/A   Clear
7:53 PM 48.9 °F - 33.1 °F 54% 29.78 in 10.0 mi South 6.9 mph - N/A   Clear
8:53 PM 52.0 °F - 32.0 °F 47% 29.75 in 10.0 mi South 6.9 mph - N/A   Scattered Clouds
9:53 PM 52.0 °F - 33.1 °F 49% 29.75 in 10.0 mi SW 16.1 mph 33.4 mph N/A   Overcast
10:53 PM 55.0 °F - 32.0 °F 42% 29.74 in 10.0 mi WSW 12.7 mph 27.6 mph 0.00 in   Mostly Cloudy
11:53 PM 48.0 °F - 36.0 °F 63% 29.71 in 10.0 mi Calm Calm - 0.00 in   Clear